• In Belgium
  • List of Countries
  • For 7 days
  • Water Temperature
  • Satellite Maps
  • Weather Map
  • Weather Widgets
  • user-avatar
    Login

    Hourly Weather Lugano

    Today, 23 October, Tuesday

    Time Temperature Precipitation Wind Pressure Humidity
    00:00 +12°C° 0 mm 2 mps 743 mmHg 65%
    01:00 +12°C° 0 mm 2 mps 743 mmHg 63%
    02:00 +12°C° 0 mm 2 mps 743 mmHg 63%
    03:00 +12°C° 0 mm 2 mps 743 mmHg 63%
    04:00 +10°C° 0 mm 2 mps 743 mmHg 63%
    05:00 +10°C° 0 mm 2 mps 743 mmHg 63%
    06:00 +10°C° 0 mm 2 mps 743 mmHg 63%
    07:00 +10°C° 0 mm 2 mps 743 mmHg 64%
    08:00 +14°C° 0 mm 2 mps 743 mmHg 57%
    09:00 +16°C° 0 mm 2 mps 742 mmHg 49%
    10:00 +19°C° 0 mm 1 mps 742 mmHg 42%
    11:00 +19°C° 0 mm 2 mps 742 mmHg 40%
    12:00 +20°C° 0 mm 2 mps 742 mmHg 37%
    13:00 +21°C° 0 mm 2 mps 741 mmHg 34%
    14:00 +21°C° 0 mm 2 mps 741 mmHg 38%
    15:00 +20°C° 0 mm 2 mps 741 mmHg 42%
    16:00 +19°C° 0 mm 2 mps 740 mmHg 46%
    17:00 +18°C° 0 mm 2 mps 741 mmHg 48%
    18:00 +16°C° 0 mm 2 mps 741 mmHg 51%
    19:00 +15°C° 0 mm 2 mps 741 mmHg 53%
    20:00 +13°C° 0 mm 3 mps 741 mmHg 50%
    21:00 +13°C° 0 mm 3 mps 741 mmHg 48%
    22:00 +13°C° 0 mm 3 mps 741 mmHg 45%
    23:00 +13°C° 0 mm 3 mps 741 mmHg 44%

    Tomorrow, 24 October, Wednesday

    Time Temperature Precipitation Wind Pressure Humidity
    00:00 +13°C° 0 mm 3 mps 741 mmHg 42%
    01:00 +13°C° 0 mm 3 mps 740 mmHg 41%
    02:00 +13°C° 0 mm 3 mps 740 mmHg 41%
    03:00 +13°C° 0 mm 3 mps 740 mmHg 42%
    04:00 +13°C° 0 mm 3 mps 740 mmHg 43%
    05:00 +13°C° 0 mm 3 mps 739 mmHg 46%
    06:00 +13°C° 0 mm 4 mps 739 mmHg 49%
    07:00 +13°C° 0 mm 4 mps 739 mmHg 52%
    08:00 +15°C° 0 mm 4 mps 739 mmHg 52%
    09:00 +18°C° 0 mm 4 mps 739 mmHg 52%
    10:00 +20°C° 0 mm 4 mps 739 mmHg 52%
    11:00 +22°C° 0 mm 4 mps 739 mmHg 51%
    12:00 +23°C° 0 mm 4 mps 738 mmHg 49%
    13:00 +25°C° 0 mm 4 mps 738 mmHg 47%
    14:00 +23°C° 0 mm 4 mps 738 mmHg 50%
    15:00 +23°C° 0 mm 4 mps 737 mmHg 53%
    16:00 +22°C° 0 mm 4 mps 737 mmHg 56%
    17:00 +21°C° 0 mm 4 mps 737 mmHg 59%
    18:00 +19°C° 0 mm 4 mps 738 mmHg 62%
    19:00 +18°C° 0 mm 4 mps 738 mmHg 65%
    20:00 +18°C° 0 mm 4 mps 738 mmHg 65%
    21:00 +17°C° 0 mm 4 mps 739 mmHg 66%
    22:00 +17°C° 0 mm 3 mps 739 mmHg 66%
    23:00 +17°C° 0 mm 3 mps 739 mmHg 67%

    Day after tomorrow, 25 October, Thursday

    Time Temperature Precipitation Wind Pressure Humidity
    00:00 +16°C° 0 mm 3 mps 739 mmHg 68%
    01:00 +16°C° 0 mm 3 mps 739 mmHg 68%
    02:00 +14°C° 0 mm 3 mps 738 mmHg 69%
    03:00 +15°C° 0 mm 2 mps 738 mmHg 69%
    04:00 +14°C° 0 mm 2 mps 738 mmHg 70%
    05:00 +14°C° 0 mm 2 mps 738 mmHg 69%
    06:00 +14°C° 0 mm 2 mps 738 mmHg 69%
    07:00 +14°C° 0 mm 2 mps 738 mmHg 68%
    08:00 +16°C° 0 mm 2 mps 738 mmHg 61%
    09:00 +19°C° 0 mm 1 mps 738 mmHg 55%
    10:00 +21°C° 0 mm 1 mps 738 mmHg 48%
    11:00 +22°C° 0 mm 1 mps 737 mmHg 46%
    12:00 +23°C° 0 mm 1 mps 737 mmHg 44%
    13:00 +24°C° 0 mm 2 mps 737 mmHg 43%
    14:00 +23°C° 0 mm 1 mps 736 mmHg 46%
    15:00 +22°C° 0 mm 1 mps 736 mmHg 50%
    16:00 +22°C° 0 mm 1 mps 736 mmHg 54%
    17:00 +20°C° 0 mm 1 mps 736 mmHg 59%
    18:00 +18°C° 0 mm 1 mps 736 mmHg 65%
    19:00 +15°C° 0 mm 1 mps 735 mmHg 71%
    20:00 +15°C° 0 mm 1 mps 735 mmHg 68%
    21:00 +15°C° 0 mm 1 mps 735 mmHg 66%
    22:00 +14°C° 0 mm 1 mps 735 mmHg 63%
    23:00 +14°C° 0 mm 1 mps 735 mmHg 62%

    26 October, Friday

    Time Temperature Precipitation Wind Pressure Humidity
    00:00 +14°C° 0 mm 1 mps 735 mmHg 61%
    01:00 +14°C° 0 mm 1 mps 735 mmHg 60%
    02:00 +13°C° 0 mm 1 mps 734 mmHg 63%
    03:00 +13°C° 0 mm 1 mps 734 mmHg 66%
    04:00 +13°C° 0 mm 1 mps 734 mmHg 69%
    05:00 +13°C° 0 mm 1 mps 734 mmHg 71%
    06:00 +13°C° 0 mm 1 mps 734 mmHg 74%
    07:00 +13°C° 0 mm 1 mps 733 mmHg 77%
    08:00 +14°C° 0.1 mm 1 mps 733 mmHg 77%
    09:00 +15°C° 0.1 mm 1 mps 733 mmHg 76%
    10:00 +16°C° 0.1 mm 1 mps 733 mmHg 76%
    11:00 +18°C° 0.1 mm 1 mps 732 mmHg 78%
    12:00 +18°C° 0.1 mm 1 mps 732 mmHg 79%
    13:00 +18°C° 0.1 mm 1 mps 732 mmHg 80%
    14:00 +18°C° 0.1 mm 1 mps 731 mmHg 83%
    15:00 +16°C° 0.1 mm 1 mps 731 mmHg 86%
    16:00 +16°C° 0.1 mm 1 mps 730 mmHg 89%
    17:00 +16°C° 0.2 mm 1 mps 730 mmHg 90%
    18:00 +15°C° 0.2 mm 1 mps 730 mmHg 92%
    19:00 +15°C° 0.2 mm 1 mps 730 mmHg 94%
    20:00 +15°C° 0.2 mm 1 mps 730 mmHg 94%
    21:00 +15°C° 0.2 mm 1 mps 730 mmHg 94%
    22:00 +15°C° 0.2 mm 1 mps 730 mmHg 94%
    23:00 +15°C° 0.6 mm 1 mps 729 mmHg 94%

    27 October, Saturday

    Time Temperature Precipitation Wind Pressure Humidity
    00:00 +15°C° 0.6 mm 2 mps 729 mmHg 95%
    01:00 +15°C° 0.6 mm 2 mps 728 mmHg 95%
    02:00 +15°C° 0.8 mm 1 mps 728 mmHg 95%
    03:00 +15°C° 0.8 mm 1 mps 727 mmHg 95%
    04:00 +14°C° 0.8 mm 1 mps 727 mmHg 95%
    05:00 +14°C° 0.9 mm 1 mps 727 mmHg 96%
    06:00 +14°C° 0.9 mm 1 mps 727 mmHg 96%
    07:00 +14°C° 0.9 mm 1 mps 726 mmHg 96%
    08:00 +14°C° 1.1 mm 2 mps 726 mmHg 93%
    09:00 +14°C° 1.1 mm 2 mps 726 mmHg 90%
    10:00 +15°C° 1.1 mm 2 mps 726 mmHg 87%
    11:00 +14°C° 1 mm 2 mps 726 mmHg 85%
    12:00 +14°C° 1 mm 2 mps 725 mmHg 83%
    13:00 +13°C° 1 mm 2 mps 725 mmHg 81%
    14:00 +11°C° 1.1 mm 3 mps 725 mmHg 80%
    15:00 +10°C° 1.1 mm 3 mps 724 mmHg 80%
    16:00 +10°C° 1.1 mm 4 mps 724 mmHg 79%
    17:00 +8°C° 0.8 mm 4 mps 724 mmHg 79%
    18:00 +7°C° 0.8 mm 4 mps 724 mmHg 79%
    19:00 +6°C° 0.8 mm 4 mps 724 mmHg 78%
    20:00 +6°C° 1 mm 4 mps 724 mmHg 79%
    21:00 +5°C° 1 mm 4 mps 724 mmHg 79%
    22:00 +5°C° 1 mm 4 mps 723 mmHg 79%
    23:00 +4°C° 0.9 mm 4 mps 724 mmHg 78%

    28 October, Sunday

    Time Temperature Precipitation Wind Pressure Humidity
    00:00 +4°C° 0.9 mm 4 mps 724 mmHg 77%
    01:00 +4°C° 0.9 mm 3 mps 724 mmHg 75%
    02:00 +4°C° 0.1 mm 3 mps 724 mmHg 75%
    03:00 +3°C° 0.1 mm 3 mps 725 mmHg 76%
    04:00 +3°C° 0.1 mm 3 mps 725 mmHg 76%
    05:00 +3°C° 0 mm 2 mps 726 mmHg 76%
    06:00 +3°C° 0 mm 2 mps 726 mmHg 76%
    07:00 +2°C° 0 mm 2 mps 727 mmHg 76%
    08:00 +4°C° 0 mm 2 mps 728 mmHg 71%
    09:00 +5°C° 0 mm 2 mps 728 mmHg 66%
    10:00 +8°C° 0 mm 1 mps 729 mmHg 60%
    11:00 +9°C° 0 mm 1 mps 729 mmHg 57%
    12:00 +9°C° 0 mm 1 mps 729 mmHg 55%
    13:00 +10°C° 0 mm 1 mps 729 mmHg 52%
    14:00 +10°C° 0.1 mm 1 mps 729 mmHg 55%
    15:00 +10°C° 0.1 mm 1 mps 729 mmHg 57%
    16:00 +9°C° 0.1 mm 1 mps 729 mmHg 60%
    17:00 +8°C° 0.1 mm 1 mps 730 mmHg 64%
    18:00 +6°C° 0.1 mm 2 mps 730 mmHg 68%
    19:00 +4°C° 0.1 mm 2 mps 731 mmHg 73%
    20:00 +4°C° 0.1 mm 2 mps 731 mmHg 73%
    21:00 +4°C° 0.1 mm 2 mps 732 mmHg 73%
    22:00 +4°C° 0.1 mm 2 mps 732 mmHg 73%
    23:00 +4°C° 0.2 mm 2 mps 732 mmHg 73%

    29 October, Monday

    Time Temperature Precipitation Wind Pressure Humidity
    00:00 +4°C° 0.2 mm 2 mps 732 mmHg 73%
    01:00 +4°C° 0.2 mm 2 mps 732 mmHg 73%
    02:00 +4°C° 0 mm 2 mps 732 mmHg 72%
    03:00 +3°C° 0 mm 2 mps 732 mmHg 72%
    04:00 +3°C° 0 mm 2 mps 732 mmHg 71%
    05:00 +3°C° 0 mm 2 mps 731 mmHg 71%
    06:00 +2°C° 0 mm 3 mps 731 mmHg 70%
    07:00 +2°C° 0 mm 3 mps 731 mmHg 70%
    08:00 +3°C° 0.1 mm 3 mps 731 mmHg 69%
    09:00 +4°C° 0.1 mm 3 mps 731 mmHg 68%
    10:00 +5°C° 0.1 mm 3 mps 731 mmHg 67%
    11:00 +5°C° 0.2 mm 3 mps 730 mmHg 66%
    12:00 +7°C° 0.2 mm 3 mps 729 mmHg 65%
    13:00 +8°C° 0.2 mm 3 mps 729 mmHg 64%
    14:00 +8°C° 0.3 mm 3 mps 728 mmHg 67%
    15:00 +7°C° 0.3 mm 3 mps 728 mmHg 70%
    16:00 +7°C° 0.3 mm 3 mps 728 mmHg 73%
    17:00 +5°C° 0.2 mm 3 mps 727 mmHg 73%
    18:00 +5°C° 0.2 mm 3 mps 727 mmHg 73%
    19:00 +5°C° 0.2 mm 3 mps 727 mmHg 73%
    20:00 +4°C° 0.2 mm 3 mps 726 mmHg 73%
    21:00 +4°C° 0.2 mm 3 mps 726 mmHg 73%
    22:00 +4°C° 0.2 mm 3 mps 726 mmHg 73%
    23:00 +4°C° 0.3 mm 3 mps 725 mmHg 74%
    Show more